Regional Weather Roundup
Issued by NWS

Home | Current Version | Previous Version | Text Only | Print | Product List | Glossary Off
Versions: 1 2 3 4 5 6 7 8 9 10 11 12 13 14 15 16 17 18 19 20 21 22 23 24 25 26 27 28 29 30 31 32 33 34 35 36 37 38 39 40 41 42 43 44 45 46 47 48 49 50

000
ASUS43 KMKX 212200
RWRWI

WISCONSIN REGIONAL WEATHER ROUNDUP
NATIONAL WEATHER SERVICE MILWAUKEE/SULLIVAN WI
500 PM CDT TUE OCT 21 2014

NOTE: "FAIR" INDICATES FEW OR NO CLOUDS BELOW 12,000 FEET WITH NO
SIGNIFICANT WEATHER AND/OR OBSTRUCTIONS TO VISIBILITY.

WIZ001-002-006>008-014>016-023>028-212300-
NORTHWEST WISCONSIN

CITY           SKY/WX    TMP DP  RH WIND       PRES   REMARKS
SUPERIOR ARPT  SUNNY     46  38  73 NE9G17    30.20F
ASHLAND        CLEAR     46  36  68 NE13      30.23F
HAYWARD        SUNNY     51  35  54 E7        30.19F
SIREN          SUNNY     55  35  46 SE9       30.17S
CUMBERLAND     SUNNY     52  34  50 SE9       30.18F
RICE LAKE      SUNNY     54  35  49 SE8       30.20S
CHETEK         SUNNY     54  37  53 SE10      30.19S
LADYSMITH      SUNNY     55  36  49 S5        30.21S
EAU CLAIRE     NOT AVBL
MENOMONIE      SUNNY     56  37  50 E9        30.18F
NEW RICHMOND   SUNNY     54  38  54 E9        30.16F
OSCEOLA        SUNNY     55  40  55 SE8       30.19S
$$

WIZ003>005-009-010-017-018-212300-
NORTH CENTRAL WISCONSIN

CITY           SKY/WX    TMP DP  RH WIND       PRES   REMARKS
MANITOWISH WTR CLEAR     46  34  63 CALM      30.22F
ARBOR VITAE    CLEAR     49  36  62 SE7       30.22F
WOODRUFF       CLEAR     49  36  62 SE7       30.22F
RHINELANDER    CLEAR     48  34  58 NE3       30.22F
EAGLE RIVER    CLEAR     47  31  53 CALM      30.22F
LAND O LAKES   CLEAR     49  31  48 SE3       30.23S
PHILLIPS       CLEAR     48  35  61 CALM      30.21S
TOMAHAWK       CLEAR     49  34  55 CALM      30.22F
MEDFORD        SUNNY     49  35  59 CALM      30.21S
MERRILL        CLEAR     51  34  51 CALM      30.22S
$$

WIZ029-030-035-036-043>047-212300-
CENTRAL WISCONSIN

CITY           SKY/WX    TMP DP  RH WIND       PRES   REMARKS
WAUSAU         CLEAR     51  35  54 CALM      30.21R
MOSINEE        NOT AVBL
MARSHFIELD     SUNNY     51  36  56 SE7       30.21S
STEVENS POINT  CLEAR     49  34  55 CALM      30.22S
WAUPACA        CLEAR     54  35  47 CALM      30.23S
WAUTOMA        NOT AVBL
WISC RAPIDS    SUNNY     51  35  54 E6        30.23S
CAMP DOUGLAS   NOT AVBL
$$

WIZ011>013-019>022-031-037>040-048>050-212300-
NORTHEAST WISCONSIN

CITY           SKY/WX    TMP DP  RH WIND       PRES   REMARKS
ANTIGO         CLEAR     49  34  54 CALM      30.22R
SHAWANO        CLEAR     54  32  43 E3        30.23R
OCONTO         CLEAR     49  37  63 SE6       30.23R
STURGEON BAY   CLEAR     50  30  46 NE9       30.24R
GREEN BAY      CLEAR     50  36  58 NE6       30.24R
MANITOWOC      NOT AVBL
APPLETON       CLEAR     52  32  46 E7        30.23R
CLINTONVILLE   CLEAR     52  32  46 NE5       30.23R
OSHKOSH        CLEAR     50  33  52 NE8       30.23S
$$

WIZ032>034-041-042-053>061-212300-
SOUTHWEST WISCONSIN

CITY           SKY/WX    TMP DP  RH WIND       PRES   REMARKS
LA CROSSE      SUNNY     58  36  43 E7        30.18S
SPARTA         SUNNY     54  35  47 E7        30.22R
VIROQUA        SUNNY     55  35  47 E5        30.19S
BOSCOBEL       SUNNY     56  37  49 E6        30.21R
PRAIRIE DU CHI SUNNY     56  35  43 E8        30.18S
PLATTEVILLE    SUNNY     53  38  55 E8        30.21R
$$

WIZ056-057-062-063-064-067-068-212300-
SOUTH CENTRAL WISCONSIN

CITY           SKY/WX    TMP DP  RH WIND       PRES   REMARKS
REEDSBURG      SUNNY     49  37  62 E6        30.22S
BARABOO/DELLS  MOSUNNY   49  35  58 E3        30.22S
LONE ROCK      NOT AVBL
MINERAL POINT  SUNNY     54  36  50 E8        30.20S
MADISON        PTSUNNY   48  37  65 NE8       30.24R
MIDDLETON      CLOUDY    50  37  59 E9        30.23R
WATERTOWN      CLOUDY    46  38  73 N6        30.23R
MONROE         MOSUNNY   48  37  66 NE7       30.21R
JANESVILLE     CLOUDY    50  37  62 N7        30.21S
$$

WIZ051-052-058>065-066-070>072-212300-
SOUTHEAST WISCONSIN

CITY           SKY/WX    TMP DP  RH WIND       PRES   REMARKS
MILWAUKEE      PTCLDY    48  37  65 NE12      30.22S
WAUKESHA       PTCLDY    46  36  66 CALM      30.22S
MILWAUKEE/TIMM CLEAR     48  36  61 NE9       30.23R
RACINE         PTCLDY    48  37  65 N14       30.23R
BURLINGTON     CLOUDY    47  36  63 NE7       30.22R
KENOSHA        CLOUDY    48  38  68 N8        30.22R
FOND DU LAC    CLEAR     49  35  58 N9        30.23S
SHEBOYGAN      CLEAR     48  38  68 NE12      30.23R
WEST BEND      PTCLDY    50  34  53 NE6       30.21S
JUNEAU         PTCLDY    46  36  66 N3        30.24S
$$

LSZ147-162-212300-
LAKE SUPERIOR

STATION/POSITION TIME  TEMP    WIND        PRES    WAVE
                       AIR SEA DIR/SP/G            HT/PER
                 (UTC) (F)     (DEG/KT/KT) (MB)    (FT/S)
W MID LAKE BUOY  2050   42 46   70/  8/  8 1025.7R   2/ 6
DEVILS ISLAND    2100   43      70/ 12/ 13 1025.3F
PORT WING        2140   47      30/ 14/ 16 1023.4F
SAXON HARBOR     2100   46      40/  9/ 11 1024.0F
$$

LMZ867-665-643>646-212300-
LAKE MICHIGAN

STATION/POSITION TIME  TEMP    WIND        PRES    WAVE
                       AIR SEA DIR/SP/G            HT/PER
                 (UTC) (F)     (DEG/KT/KT) (MB)    (FT/S)
CHAMBERS ISLAND  2100   49      30/  9/ 12 1023.7S
N MID LAKE BUOY  2050   47 51   40/ 10/ 14 1023.7R   2/ 4
NORTHPORT PIER   2100   49     340/ 10/ 12 1023.7R
SISTER BAY       2112           10/ 10/ 13   N/A
KEWAUNEE LAKESHO 2100   48      40/  7/ 10 1022.7R
SHEBOYGAN LAKESH 2100   47 50   30/ 16/ 17 1023.9S
PORT WASHINGTON  2140   49      40/ 12/ 17 1023.7S
ATWATER BUOY     2100   49      30/ 16/ 19 1023.9R
MILWAUKEE LAKESH 2100   48      30/ 16/ 18   N/A
S MID LAKE BUOY  2050   49 54  350/ 17/ 21 1022.1R   5/ 7
KENOSHA   LAKESH 2100   49     360/ 14/ 20 1022.7R
$$

TC  - TEMPERATURE IN CELSIUS
VSB - VISIBILITY IN STATUTE MILES
WCI - WIND CHILL INDEX
HX  - HEAT INDEX




USA.gov is the U.S. government's official web portal to all federal, state and local government web resources and services.